Change the Weather History Date:

Tuesday, April 30, 2013

  Actual Average Record
Temperature  
Mean Temperature 66 °F 50 °F  
Max Temperature 82 °F 62 °F 88 °F (1952)
Min Temperature 50 °F 39 °F 11 °F (1956)
Degree Days  
Heating Degree Days 0 15  
Month to date heating degree days 803 631  
Since 1 July heating degree days 7879 7852  
Cooling Degree Days 1 0  
Month to date cooling degree days 1 2  
Year to date cooling degree days 1 2  
Growing Degree Days 18 (Base 50)    
Moisture  
Dew Point 49 °F    
Average Humidity 62    
Maximum Humidity 86    
Minimum Humidity 37    
Precipitation  
Precipitation 0.20 in 0.11 in 1.05 in (1954)
Month to date precipitation 4.39 2.73  
Year to date precipitation 9.72 6.43  
Snow  
Snow 0.00 in 0.10 in 6.00 in (1909)
Month to date snowfall 10.1 4.1  
Since 1 July snowfall 78.8 59.4  
Snow Depth 0.00 in    
Sea Level Pressure  
Sea Level Pressure 29.71 in    
Wind  
Wind Speed 13 mph (WSW)    
Max Wind Speed 32 mph    
Max Gust Speed 39 mph    
Visibility 10 miles    
Events Rain , Thunderstorm    
T = Trace of Precipitation, MM = Missing Value Source: NWS Daily Summary

Daily Weather History Graph

Daily Weather History Graph

Search for Another Location

Airport or City:

Trip Planner

Search our weather history database for the weather conditions in past years. The results will help you decide how hot, cold, wet, or windy it might be!

Date:

Astronomy

Apr. 30, 2013 Rise Set
Actual Time 5:49 AM CDT 8:03 PM CDT
Civil Twilight 5:16 AM CDT 8:35 PM CDT
Nautical Twilight 4:37 AM CDT 9:15 PM CDT
Astronomical Twilight 3:52 AM CDT 10:00 PM CDT
Moon 12:29 AM CDT (4/30) 10:15 AM CDT (4/30)
Length of Visible Light 15h 18m
Length of Day
14h 13m
Waning Gibbous, 70% of the Moon is Illuminated
Apr 30
Waning Gibbous
May 2
Last Quarter
May 9
New
May 17
First Quarter
May 24
Full

Hourly Weather History & Observations

Time (CDT) Temp. Heat Index Dew Point Humidity Pressure Visibility Wind Dir Wind Speed Gust Speed Precip Events Conditions
12:54 AM 57.0 °F - 50.0 °F 77% 29.68 in 10.0 mi ESE 5.8 mph - N/A   Partly Cloudy
1:54 AM 55.9 °F - 50.0 °F 80% 29.65 in 10.0 mi East 8.1 mph - N/A   Clear
2:54 AM 55.9 °F - 51.1 °F 84% 29.64 in 10.0 mi ESE 5.8 mph - N/A   Scattered Clouds
3:54 AM 55.0 °F - 52.0 °F 89% 29.64 in 9.0 mi ESE 5.8 mph - N/A   Clear
4:54 AM 57.0 °F - 54.0 °F 89% 29.63 in 10.0 mi SE 8.1 mph - N/A   Scattered Clouds
5:54 AM 57.0 °F - 54.0 °F 89% 29.62 in 10.0 mi SE 5.8 mph - N/A   Clear
6:54 AM 57.9 °F - 54.0 °F 87% 29.62 in 10.0 mi SSE 5.8 mph - N/A   Clear
7:54 AM 63.0 °F - 55.0 °F 75% 29.60 in 10.0 mi South 11.5 mph - N/A   Clear
8:54 AM 66.9 °F - 54.0 °F 63% 29.59 in 10.0 mi SSW 15.0 mph 20.7 mph N/A   Clear
9:54 AM 73.9 °F - 54.0 °F 50% 29.58 in 10.0 mi SW 15.0 mph 26.5 mph N/A   Clear
10:54 AM 73.9 °F - 54.0 °F 50% 29.58 in 10.0 mi South 18.4 mph 26.5 mph N/A   Clear
11:54 AM 78.1 °F - 55.0 °F 45% 29.57 in 10.0 mi SSW 15.0 mph 26.5 mph N/A   Clear
12:54 PM 79.0 °F - 54.0 °F 42% 29.58 in 10.0 mi SSW 19.6 mph 26.5 mph N/A   Scattered Clouds
1:54 PM 80.1 °F 79.9 °F 53.1 °F 39% 29.60 in 10.0 mi SSW 20.7 mph 28.8 mph N/A   Partly Cloudy
2:54 PM 82.0 °F 81.2 °F 53.1 °F 37% 29.63 in 10.0 mi SW 18.4 mph 26.5 mph N/A   Mostly Cloudy
3:54 PM 82.0 °F 81.3 °F 54.0 °F 38% 29.65 in 10.0 mi SSW 15.0 mph 21.9 mph N/A   Mostly Cloudy
4:54 PM - - - N/A% 29.67 in - North - - N/A   Unknown
5:54 PM 82.0 °F 81.2 °F 53.1 °F 37% 29.69 in 10.0 mi SW 9.2 mph - N/A   Partly Cloudy
6:54 PM 79.0 °F - 53.1 °F 40% 29.71 in 10.0 mi WSW 13.8 mph 18.4 mph N/A   Scattered Clouds
7:54 PM 71.1 °F - 50.0 °F 47% 29.75 in 10.0 mi WNW 18.4 mph 25.3 mph 0.03 in Thunderstorm Mostly Cloudy
8:03 PM 71.6 °F - 48.2 °F 43% 29.75 in 10.0 mi WNW 12.7 mph - N/A   Mostly Cloudy
9:07 PM 69.8 °F - 44.6 °F 40% 29.78 in 10.0 mi NW 11.5 mph - N/A Thunderstorm Overcast
9:22 PM 68.0 °F - 41.0 °F 37% 29.79 in 10.0 mi NW 9.2 mph 19.6 mph 0.00 in Rain Light Rain
9:54 PM 64.9 °F - 37.9 °F 37% 29.84 in 10.0 mi NW 10.4 mph - 0.00 in   Overcast
10:01 PM 64.4 °F - 37.4 °F 37% 29.86 in 10.0 mi WNW 17.3 mph 23.0 mph N/A Thunderstorm Overcast
10:22 PM 57.2 °F - 42.8 °F 59% 29.88 in 10.0 mi NW 16.1 mph 29.9 mph 0.00 in Rain Light Rain
10:33 PM 57.2 °F - 44.6 °F 63% 29.86 in 10.0 mi NNW 13.8 mph 27.6 mph 0.00 in Rain , Thunderstorm Light Rain
11:23 PM 55.4 °F - 46.4 °F 72% 29.90 in 10.0 mi NNW 12.7 mph - 0.00 in   Overcast
11:32 PM 53.6 °F - 44.6 °F 72% 29.90 in 10.0 mi NNW 15.0 mph 23.0 mph 0.00 in Thunderstorm Overcast
11:47 PM 53.6 °F - 44.6 °F 72% 29.92 in 10.0 mi NNW 10.4 mph - 0.00 in   Overcast
11:54 PM 53.1 °F - 45.0 °F 74% 29.97 in 8.0 mi West 10.4 mph - 0.02 in Rain Light Rain